This demonstration page uses our WeatherBlox Daily Observations layout. Learn more.

Left ArrowRight Arrow

38.83388, -104.82136

Hourly Observations for April 19, 2017

Temp ( °F °C ) Dew Point ( °F °C ) Humidity (%) Winds ( mph kmh ) Pressure ( in mb ) Visibility ( mi km ) Precip ( " mm )
12:56 am 00:56 Clear 61 16.3 17 -8.2 18 18 SSE 8 13 29.40 996 10 16 0.00 0.00
1:56 am 01:56 Clear 61 15.9 17 -8.5 18 18 SE 3 6 29.37 995 10 16 0.00 0.00
2:31 am 02:31 Clear 61 16 16 -9 17 17 ENE 15 24 29.44 997 10 16 0.00 0.00
2:38 am 02:38 Clear 61 16 14 -10 16 16 ENE 13 20 29.44 997 10 16 0.00 0.00
2:41 am 02:41 Clear 61 16 14 -10 16 16 SE 15 24 29.44 997 10 16 0.00 0.00
2:44 am 02:44 Clear 61 16 14 -10 16 16 E 17 28 29.44 997 10 16 0.00 0.00
2:45 am 02:45 Clear 61 16 14 -10 16 16 SSE 18 30 29.44 997 10 16 0.00 0.00
2:56 am 02:56 Clear 61 16.3 14 -9.9 16 16 SE 18 30 29.29 992 10 16 0.00 0.00
2:57 am 02:57 Clear 61 16 14 -10 16 16 E 16 26 29.44 997 10 16 0.00 0.00
3:10 am 03:10 Clear 61 16 14 -10 16 16 N 21 33 29.44 997 10 16 0.00 0.00
3:13 am 03:13 Clear 61 16 14 -10 16 16 ESE 15 24 29.41 996 10 16 0.00 0.00
3:23 am 03:23 Clear 61 16 14 -10 16 16 NNE 17 28 29.44 997 10 16 0.00 0.00
3:26 am 03:26 Clear 61 16 16 -9 17 17 NE 15 24 29.44 997 10 16 0.00 0.00
3:35 am 03:35 Clear 61 16 16 -9 17 17 W 16 26 29.44 997 10 16 0.00 0.00
3:40 am 03:40 Clear 61 16 16 -9 17 17 WSW 13 20 29.44 997 10 16 0.00 0.00
3:47 am 03:47 Clear 61 16 16 -9 17 17 ENE 15 24 29.44 997 10 16 0.00 0.00
3:56 am 03:56 Clear 60 15.7 15 -9.4 17 17 N 7 11 29.30 992 10 16 0.00 0.00
3:58 am 03:58 Clear 61 16 16 -9 17 17 ENE 16 26 29.44 997 10 16 0.00 0.00
4:56 am 04:56 Clear 59 15.2 16 -8.8 18 18 ESE 14 22 29.34 994 10 16 0.00 0.00
5:40 am 05:40 Clear 57 14 18 -8 21 21 SSE 16 26 29.50 999 10 16 0.00 0.00
5:56 am 05:56 Clear 58 14.4 17 -8.4 20 20 SE 9 15 29.36 994 10 16 0.00 0.00
6:56 am 06:56 Sunny 58 14.4 16 -8.9 19 19 S 9 15 29.38 995 10 16 0.00 0.00
7:54 am 07:54 Sunny 59 15 18 -8 20 20 SE 15 24 29.56 1001 10 16 0.00 0.00
7:56 am 07:56 Sunny 60 15.4 18 -7.8 20 20 SE 14 22 29.38 995 10 16 0.00 0.00
8:56 am 08:56 Sunny 63 17.2 21 -6.2 20 20 E 5 7 29.40 996 10 16 0.00 0.00
9:58 am 09:58 Sunny 66 18.9 23 -5.2 19 19 ENE 7 11 29.50 999 10 16 0.00 0.00
10:58 am 10:58 Sunny 66 19 22 -5.3 19 19 NE 14 22 29.50 999 7 11 0.00 0.00
11:56 am 11:56 Sunny 69 20.5 24 -4.6 18 18 E 10 17 29.38 995 5 8 0.00 0.00
12:08 pm 12:08 Sunny 68 20 21 -6 17 17 E 12 19 29.47 998 10 16 0.00 0.00
12:15 pm 12:15 Sunny 66 19 21 -6 18 18 SE 26 43 29.47 998 10 16 0.00 0.00
12:18 pm 12:18 Sunny 66 19 19 -7 17 17 E 15 24 29.50 999 9 14 0.00 0.00
12:27 pm 12:27 Sunny 66 19 21 -6 18 18 ESE 18 30 29.50 999 8 13 0.00 0.00
12:56 pm 12:56 Sunny 67 19.7 22 -5.8 17 17 E 13 20 29.38 995 10 16 0.00 0.00
1:21 pm 13:21 Sunny 68 20 19 -7 16 16 N 12 19 29.47 998 10 16 0.00 0.00
1:29 pm 13:29 Sunny 66 19 19 -7 17 17 NNW 16 26 29.50 999 10 16 0.00 0.00
1:42 pm 13:42 Sunny 66 19 19 -7 17 17 WNW 15 24 29.50 999 10 16 0.00 0.00
1:54 pm 13:54 Sunny 68 20 21 -6 17 17 NNE 13 20 29.47 998 10 16 0.00 0.00
1:55 pm 13:55 Sunny 68 20 21 -6 17 17 WNW 17 28 29.47 998 10 16 0.00 0.00
1:56 pm 13:56 Sunny 67 19.6 21 -6 17 17 WNW 17 28 29.40 996 10 16 0.00 0.00
2:02 pm 14:02 Sunny 66 19 21 -6 18 18 WSW 13 20 29.50 999 10 16 0.00 0.00
2:06 pm 14:06 Sunny 66 19 23 -5 19 19 WNW 14 22 29.50 999 10 16 0.00 0.00
2:10 pm 14:10 Sunny 66 19 23 -5 19 19 NNW 12 19 29.50 999 10 16 0.00 0.00
2:14 pm 14:14 Sunny 66 19 23 -5 19 19 NNW 16 26 29.50 999 10 16 0.00 0.00
2:22 pm 14:22 Sunny 66 19 21 -6 18 18 NNE 20 31 29.50 999 10 16 0.00 0.00
2:46 pm 14:46 Sunny 66 19 18 -8 15 15 SSE 13 20 29.50 999 10 16 0.00 0.00
2:56 pm 14:56 Sunny 68 20.2 18 -7.7 15 15 SSE 6 9 29.39 995 10 16 0.00 0.00
3:06 pm 15:06 Sunny 70 21 16 -9 12 12 SSE 13 20 29.44 997 10 16 0.00 0.00
3:24 pm 15:24 Sunny 68 20 18 -8 14 14 W 16 26 29.47 998 10 16 0.00 0.00
3:28 pm 15:28 Sunny 68 20 18 -8 14 14 NNW 21 33 29.47 998 10 16 0.00 0.00
3:37 pm 15:37 Sunny 68 20 18 -8 14 14 WNW 18 30 29.47 998 10 16 0.00 0.00
3:40 pm 15:40 Sunny 68 20 19 -7 16 16 NNW 15 24 29.47 998 10 16 0.00 0.00
3:58 pm 15:58 Sunny 67 19.3 18 -7.6 15 15 NW 25 41 29.50 999 10 16 0.00 0.00
4:10 pm 16:10 Sunny 68 20 18 -8 14 14 ESE 12 19 29.50 999 10 16 0.00 0.00
4:58 pm 16:58 Sunny 67 19.4 19 -7.2 16 16 Calm 29.53 1000 10 16 0.00 0.00
5:58 pm 17:58 Sunny 65 18.2 22 -5.8 19 19 Calm 29.59 1002 10 16 0.00 0.00
6:58 pm 18:58 Sunny 63 17.3 19 -7.4 18 18 NW 7 11 29.62 1003 10 16 0.00 0.00
7:33 pm 19:33 Sunny 57 14 28 -2 33 33 N 15 24 29.74 1007 10 16 0.00 0.00
7:58 pm 19:58 Mostly Clear 53 11.9 28 -2.3 37 37 NE 13 20 29.83 1010 10 16 0.00 0.00
8:58 pm 20:58 Mostly Clear 51 10.3 29 -1.8 43 43 NNW 18 30 29.88 1012 10 16 0.00 0.00
9:58 pm 21:58 Mostly Cloudy 49 9.5 29 -1.7 46 46 NW 16 26 29.71 1006 10 16 0.00 0.00
10:58 pm 22:58 Mostly Cloudy 49 9.5 29 -1.8 46 46 NW 15 24 29.70 1006 10 16 0.00 0.00
11:58 pm 23:58 Mostly Cloudy 49 9.2 28 -2.3 45 45 NNW 10 17 30.00 1016 10 16 0.00 0.00

Powered by AerisWeather